Buenos Aires, Argentina

11:06 AM America en Noviembre 24, 2017 (GMT +0000)
Jorge Newbery Aeroparque

Tiempo Historia de SABE - Noviembre, 2017

Change the Weather History Date:

Martes, Noviembre 14, 2017

  Actual Average Record
Temperature  
Temperatura media 76 ° F -  
Temperatura máxima 86 ° F 78 ° F 87 ° F (2013)
Temperatura mínima 66 ° F 63 ° F 48 ° F (2000)
Cooling Degree Days 11    
Growing Degree Days 26 (Base 50)    
Moisture  
Punto de rocío 62 ° F    
Average Humidity 61    
Maximum Humidity 78    
Minimum Humidity 36    
Precipitación  
Precipitación 0.00 pul 0.13 pul - ()
Presión al nivel del mar  
Presión al nivel del mar 29.81 pul    
Viento  
Velocidad del viento 10 mph ()    
Velocidad máxima del viento 18 mph    
Max Gust Speed -    
Visibilidad 6.0 Millas    
Eventos      
Averages and records for this station are not official NWS values.
T = Trace of Precipitation, MM = Missing Value Source: Averaged Metar Reports

Daily Weather History Graph

Daily Weather History Graph

Search for Another Location

Airport or City:

Trip Planner

Search our weather history database for the weather conditions in past years. The results will help you decide how hot, cold, wet, or windy it might be!

Date:

Astronomía

Nov. 14, 2017 Salida Puesta
Hora real 5:40 AM -03 7:35 PM -03
Crepúsculo civil 5:13 AM -03 8:03 PM -03
Crepúsculo náutico 4:39 AM -03 8:37 PM -03
Crepúsculo astronómico 4:03 AM -03 9:13 PM -03
Luna 3:44 AM -03 (11/14) 4:02 PM -03 (11/14)
Horas de luz 14h 50m
Horas de luz
13h 54m
Creciente menguante, 14% of the Moon is Illuminated
Nov 14
Creciente menguante
Nov 18
Nueva
Nov 26
Cuarto creciente
Dic 3
Luna llena
Dic 10
Cuarto menguante

Hourly Weather History & Observations

Hora (-03) Temp. Índice de calor Punto de rocío Humedad Presión Visibilidad Wind Dir Velocidad del viento Velocidad de ráfagas Precip Eventos Condiciones
12:00 AM 68 ° F - 57 ° F 60% 29.93 pul 6 mi ESE 18.4 mph - -  
12:00 AM 69.8 ° F - 57.2 ° F 64% 29.92 pul - Este 17.3 mph - N/A   Despejado
1:00 AM 68.0 ° F - 57.2 ° F 68% 29.92 pul - Este 16.1 mph - N/A   Despejado
2:00 AM 68.0 ° F - 57.2 ° F 68% 29.89 pul - Este 13.8 mph - N/A   Despejado
3:00 AM 67 ° F - 57 ° F 63% 29.87 pul 6 mi Este 10.4 mph - -  
3:00 AM 68.0 ° F - 57.2 ° F 68% 29.86 pul - ENE 11.5 mph - N/A   Despejado
4:00 AM 68.0 ° F - 59.0 ° F 73% 29.86 pul - NE 11.5 mph - N/A   Despejado
5:00 AM 69.8 ° F - 60.8 ° F 73% 29.86 pul - NNE 9.2 mph - N/A   Despejado
6:00 AM 69 ° F - 59 ° F 63% 29.86 pul 6 mi NNE 10.4 mph - -   Nubes dispersas
6:00 AM 69.8 ° F - 60.8 ° F 73% 29.86 pul - Norte 9.2 mph - N/A   Despejado
8:00 AM 71.6 ° F - 60.8 ° F 69% 29.86 pul - Norte 11.5 mph - N/A   Despejado
9:00 AM 72 ° F - 61 ° F 59% 29.88 pul 6 mi NNE 9.2 mph - -   Despejado
9:00 AM 71.6 ° F - 60.8 ° F 69% 29.86 pul - Norte 9.2 mph - N/A   Despejado
10:00 AM 73.4 ° F - 60.8 ° F 65% 29.86 pul - Norte 9.2 mph - N/A   Despejado
11:00 AM 77.0 ° F - 62.6 ° F 61% 29.83 pul - NNE 8.1 mph - N/A   Despejado
12:00 PM 79 ° F - 62 ° F 47% 29.84 pul 6 mi NE 5.8 mph - -  
12:00 PM 78.8 ° F - 62.6 ° F 57% 29.83 pul - NE 5.8 mph - N/A   Despejado
1:00 PM 80.6 ° F 81.8 ° F 62.6 ° F 54% 29.80 pul - ENE 8.1 mph - N/A   Despejado
2:00 PM 82.4 ° F 84.6 ° F 66.2 ° F 58% 29.80 pul - ENE 8.1 mph - N/A   Despejado
3:00 PM 85 ° F - 64 ° F 39% 29.77 pul 6 mi ENE 6.9 mph - -  
3:00 PM 84.2 ° F 85.0 ° F 62.6 ° F 48% 29.77 pul - ENE 8.1 mph - N/A   Despejado
4:00 PM 84.2 ° F 85.6 ° F 64.4 ° F 51% 29.71 pul - NNE 6.9 mph - N/A   Despejado
5:00 PM 86.0 ° F 86.6 ° F 62.6 ° F 45% 29.71 pul - NE 8.1 mph - N/A   Despejado
6:00 PM 86 ° F - 63 ° F 36% 29.71 pul 6 mi NE 6.9 mph - -   Nubes dispersas
6:00 PM 86.0 ° F 87.3 ° F 64.4 ° F 48% 29.68 pul - NE 6.9 mph - N/A   Despejado
7:00 PM 78.8 ° F - 68.0 ° F 69% 29.71 pul - ESE 11.5 mph - N/A   Despejado
8:00 PM 82.4 ° F 83.9 ° F 64.4 ° F 54% 29.71 pul - ESE 10.4 mph - N/A   Despejado
9:00 PM 75 ° F - 67 ° F 71% 29.72 pul 6 mi ESE 9.2 mph - -  
9:00 PM 75.2 ° F - 68.0 ° F 78% 29.71 pul - ESE 9.2 mph - N/A   Despejado
10:00 PM 77.0 ° F - 66.2 ° F 69% 29.71 pul - Este 8.1 mph - N/A   Despejado
11:00 PM 77.0 ° F - 66.2 ° F 69% 29.68 pul - Este 8.1 mph - N/A   Despejado